GFSMA_prec_precacc6_159.txt.gz
Total_Precipitation_Accumulation
0.00 0.00 0.00 0.00 0.00 0.00 0.00 0.00 0.00 0.00 0.00 0.00 0.00 0.00 0.00 0.00 0.00 0.00 0.00 0.00 0.00 0.05 0.01 0.01 0.01 0.00 0.00 0.00 0.00 0.00 0.00 0.00 0.00 0.00 0.00 0.01 0.01 0.01 0.01 0.01 0.00 0.00 0.00
0.01 0.01 0.00 0.00 0.00 0.00 0.00 0.00 0.00 0.00 0.00 0.00 0.00 0.00 0.00 0.00 0.00 0.00 0.00 0.00 0.00 0.00 0.01 0.02 0.04 0.01 0.01 0.00 0.00 0.00 0.00 0.00 0.00 0.00 0.00 0.00 0.01 0.01 0.00 0.00 0.00 0.00 0.00
0.10 0.08 0.04 0.01 0.00 0.00 0.01 0.01 0.00 0.00 0.00 0.00 0.00 0.00 0.00 0.00 0.00 0.00 0.00 0.00 0.00 0.00 0.00 0.00 0.01 0.05 0.04 0.02 0.00 0.00 0.00 0.00 0.00 0.00 0.00 0.00 0.00 0.00 0.00 0.00 0.00 0.00 0.00
0.23 0.25 0.15 0.03 0.03 0.03 0.05 0.07 0.04 0.02 0.00 0.00 0.00 0.00 0.00 0.00 0.00 0.00 0.00 0.00 0.00 0.00 0.00 0.00 0.00 0.01 0.05 0.05 0.00 0.00 0.00 0.00 0.00 0.00 0.00 0.00 0.00 0.00 0.00 0.00 0.00 0.00 0.00
0.27 0.37 0.27 0.09 0.11 0.09 0.08 0.16 0.10 0.08 0.04 0.03 0.02 0.03 0.00 0.00 0.00 0.00 0.00 0.00 0.00 0.00 0.00 0.00 0.00 0.00 0.01 0.03 0.02 0.00 0.00 0.00 0.00 0.00 0.00 0.00 0.00 0.00 0.00 0.00 0.00 0.00 0.00
0.12 0.19 0.21 0.18 0.20 0.21 0.12 0.12 0.17 0.15 0.10 0.14 0.13 0.10 0.06 0.02 0.01 0.00 0.00 0.00 0.00 0.00 0.00 0.00 0.00 0.00 0.00 0.00 0.02 0.01 0.01 0.01 0.01 0.00 0.00 0.00 0.00 0.00 0.00 0.01 0.00 0.00 0.00
0.02 0.07 0.08 0.08 0.15 0.19 0.19 0.16 0.32 0.39 0.14 0.23 0.35 0.26 0.21 0.12 0.07 0.00 0.00 0.00 0.00 0.00 0.00 0.00 0.00 0.00 0.00 0.00 0.01 0.03 0.02 0.02 0.01 0.01 0.00 0.00 0.00 0.00 0.00 0.01 0.01 0.00 0.00
0.06 0.11 0.16 0.16 0.15 0.11 0.17 0.26 0.32 0.56 0.30 0.34 0.48 0.51 0.33 0.30 0.17 0.14 0.11 0.04 0.01 0.04 0.01 0.03 0.01 0.00 0.00 0.00 0.00 0.00 0.03 0.04 0.03 0.01 0.01 0.00 0.00 0.00 0.00 0.01 0.00 0.00 0.00
0.01 0.04 0.10 0.17 0.19 0.27 0.14 0.26 0.41 0.49 0.32 0.39 0.46 0.45 0.30 0.16 0.20 0.31 0.27 0.22 0.20 0.12 0.09 0.06 0.08 0.03 0.00 0.00 0.00 0.00 0.00 0.02 0.04 0.03 0.00 0.00 0.00 0.00 0.00 0.00 0.00 0.00 0.00
0.00 0.01 0.04 0.13 0.18 0.22 0.27 0.29 0.46 0.51 0.56 0.43 0.43 0.45 0.42 0.40 0.35 0.23 0.21 0.22 0.26 0.20 0.16 0.14 0.15 0.14 0.05 0.01 0.00 0.00 0.00 0.00 0.00 0.02 0.01 0.00 0.00 0.00 0.00 0.00 0.00 0.00 0.00
0.00 0.00 0.00 0.03 0.09 0.17 0.20 0.26 0.28 0.39 0.57 0.85 0.94 0.78 0.74 0.73 0.75 0.75 0.57 0.37 0.31 0.21 0.20 0.17 0.22 0.22 0.13 0.06 0.02 0.00 0.00 0.00 0.00 0.00 0.00 0.00 0.00 0.00 0.00 0.00 0.00 0.00 0.00
0.00 0.00 0.00 0.00 0.01 0.04 0.08 0.12 0.23 0.27 0.29 0.44 0.81 1.28 1.34 1.12 0.84 0.62 0.47 0.33 0.26 0.17 0.14 0.18 0.16 0.13 0.16 0.10 0.06 0.05 0.03 0.01 0.00 0.00 0.00 0.00 0.00 0.00 0.00 0.00 0.00 0.00 0.00
0.00 0.00 0.00 0.00 0.00 0.01 0.03 0.10 0.12 0.23 0.22 0.22 0.29 0.42 0.55 0.69 0.74 0.93 1.16 0.99 0.83 0.65 0.49 0.38 0.22 0.11 0.11 0.13 0.07 0.06 0.08 0.04 0.01 0.00 0.00 0.00 0.00 0.00 0.00 0.00 0.00 0.00 0.00
0.00 0.00 0.00 0.00 0.01 0.01 0.02 0.07 0.11 0.10 0.15 0.22 0.20 0.23 0.31 0.34 0.37 0.37 0.52 0.61 0.62 0.37 0.20 0.17 0.20 0.18 0.12 0.07 0.05 0.11 0.10 0.07 0.03 0.00 0.00 0.00 0.00 0.00 0.00 0.00 0.00 0.00 0.00
0.01 0.01 0.01 0.01 0.01 0.01 0.02 0.08 0.08 0.04 0.07 0.13 0.20 0.18 0.16 0.16 0.21 0.26 0.24 0.17 0.11 0.04 0.02 0.04 0.09 0.08 0.11 0.11 0.09 0.16 0.15 0.12 0.12 0.06 0.02 0.00 0.00 0.01 0.01 0.00 0.00 0.00 0.00
0.01 0.01 0.03 0.04 0.05 0.03 0.01 0.03 0.05 0.07 0.07 0.05 0.13 0.14 0.11 0.09 0.08 0.06 0.07 0.09 0.07 0.02 0.00 0.00 0.03 0.04 0.06 0.10 0.11 0.11 0.07 0.12 0.12 0.09 0.05 0.02 0.01 0.00 0.01 0.03 0.02 0.00 0.00
0.02 0.03 0.06 0.08 0.07 0.03 0.04 0.04 0.05 0.05 0.05 0.06 0.10 0.11 0.09 0.07 0.05 0.03 0.03 0.04 0.04 0.03 0.01 0.00 0.00 0.01 0.02 0.02 0.03 0.06 0.09 0.09 0.06 0.06 0.05 0.03 0.01 0.00 0.00 0.01 0.02 0.01 0.00
0.07 0.11 0.14 0.19 0.16 0.10 0.10 0.09 0.06 0.05 0.06 0.07 0.08 0.07 0.06 0.07 0.04 0.02 0.01 0.02 0.03 0.04 0.05 0.01 0.00 0.02 0.05 0.04 0.04 0.05 0.06 0.05 0.04 0.04 0.06 0.06 0.03 0.00 0.01 0.00 0.00 0.00 0.00
0.14 0.13 0.14 0.19 0.21 0.21 0.27 0.18 0.12 0.12 0.12 0.08 0.07 0.07 0.04 0.04 0.04 0.04 0.07 0.09 0.10 0.12 0.16 0.13 0.06 0.05 0.07 0.08 0.07 0.04 0.04 0.04 0.02 0.03 0.04 0.05 0.05 0.03 0.02 0.01 0.01 0.00 0.00
0.13 0.16 0.17 0.24 0.17 0.16 0.33 0.37 0.34 0.29 0.30 0.20 0.10 0.07 0.05 0.04 0.04 0.03 0.03 0.04 0.03 0.05 0.10 0.14 0.17 0.15 0.08 0.07 0.09 0.08 0.06 0.03 0.05 0.05 0.08 0.05 0.04 0.04 0.03 0.02 0.02 0.01 0.01
0.15 0.19 0.18 0.20 0.25 0.27 0.34 0.46 0.47 0.44 0.39 0.35 0.21 0.12 0.08 0.10 0.09 0.07 0.05 0.02 0.02 0.02 0.04 0.06 0.05 0.06 0.12 0.18 0.16 0.11 0.10 0.07 0.08 0.12 0.10 0.13 0.12 0.07 0.04 0.02 0.01 0.01 0.02
0.14 0.17 0.16 0.16 0.15 0.25 0.35 0.40 0.51 0.54 0.47 0.45 0.31 0.18 0.11 0.07 0.04 0.05 0.04 0.05 0.01 0.00 0.00 0.02 0.05 0.04 0.03 0.04 0.11 0.24 0.37 0.24 0.10 0.08 0.21 0.28 0.26 0.28 0.22 0.14 0.09 0.06 0.02
0.07 0.09 0.11 0.12 0.10 0.14 0.20 0.18 0.24 0.41 0.52 0.44 0.31 0.23 0.13 0.05 0.04 0.01 0.02 0.01 0.00 0.00 0.01 0.01 0.01 0.01 0.02 0.06 0.07 0.09 0.09 0.12 0.14 0.07 0.06 0.08 0.31 0.51 0.46 0.44 0.43 0.31 0.13
0.00 0.01 0.02 0.05 0.08 0.06 0.06 0.04 0.03 0.05 0.17 0.36 0.37 0.21 0.14 0.07 0.02 0.01 0.00 0.00 0.00 0.00 0.00 0.00 0.00 0.00 0.01 0.04 0.04 0.09 0.21 0.29 0.30 0.19 0.19 0.23 0.24 0.38 0.39 0.32 0.29 0.31 0.33
0.00 0.00 0.00 0.00 0.00 0.01 0.03 0.02 0.01 0.02 0.04 0.05 0.13 0.18 0.11 0.04 0.02 0.01 0.00 0.00 0.00 0.00 0.00 0.00 0.00 0.00 0.01 0.03 0.05 0.06 0.08 0.06 0.07 0.05 0.08 0.19 0.27 0.36 0.38 0.37 0.26 0.21 0.23
0.00 0.00 0.00 0.00 0.00 0.00 0.00 0.01 0.01 0.01 0.01 0.01 0.02 0.03 0.06 0.05 0.04 0.02 0.00 0.00 0.00 0.00 0.00 0.00 0.00 0.00 0.00 0.00 0.03 0.02 0.01 0.02 0.03 0.03 0.01 0.03 0.03 0.11 0.25 0.26 0.22 0.17 0.13

GFSMA_prec_precacc6_162.txt.gz
Total_Precipitation_Accumulation
0.06 0.04 0.02 0.01 0.01 0.01 0.00 0.00 0.00 0.00 0.00 0.00 0.00 0.00 0.00 0.00 0.00 0.00 0.00 0.00 0.00 0.02 0.01 0.02 0.01 0.01 0.00 0.00 0.00 0.00 0.00 0.00 0.00 0.00 0.00 0.00 0.01 0.01 0.01 0.01 0.01 0.01 0.01
0.10 0.08 0.07 0.03 0.01 0.01 0.01 0.01 0.00 0.00 0.00 0.00 0.00 0.00 0.00 0.00 0.00 0.00 0.00 0.00 0.00 0.00 0.00 0.02 0.04 0.02 0.02 0.01 0.00 0.00 0.00 0.00 0.00 0.00 0.00 0.00 0.00 0.01 0.00 0.01 0.00 0.01 0.01
0.15 0.16 0.13 0.08 0.04 0.01 0.04 0.07 0.02 0.01 0.00 0.01 0.00 0.00 0.00 0.00 0.00 0.00 0.00 0.00 0.00 0.00 0.00 0.00 0.01 0.03 0.07 0.05 0.00 0.00 0.00 0.00 0.00 0.00 0.00 0.00 0.00 0.00 0.00 0.00 0.00 0.01 0.01
0.22 0.28 0.24 0.13 0.09 0.08 0.08 0.12 0.05 0.02 0.02 0.04 0.01 0.01 0.01 0.00 0.00 0.00 0.00 0.00 0.00 0.00 0.00 0.00 0.00 0.00 0.01 0.04 0.01 0.00 0.00 0.00 0.00 0.00 0.00 0.00 0.00 0.00 0.00 0.00 0.00 0.01 0.01
0.13 0.18 0.19 0.12 0.14 0.13 0.15 0.21 0.16 0.12 0.07 0.05 0.05 0.06 0.04 0.01 0.00 0.00 0.00 0.00 0.00 0.00 0.00 0.00 0.00 0.00 0.00 0.01 0.03 0.01 0.01 0.01 0.00 0.00 0.00 0.00 0.00 0.00 0.00 0.01 0.01 0.01 0.01
0.04 0.05 0.07 0.12 0.15 0.15 0.16 0.20 0.24 0.22 0.17 0.22 0.23 0.07 0.07 0.04 0.02 0.00 0.00 0.00 0.00 0.00 0.00 0.00 0.00 0.00 0.00 0.00 0.01 0.02 0.02 0.02 0.01 0.00 0.00 0.00 0.00 0.00 0.00 0.01 0.01 0.01 0.00
0.00 0.01 0.03 0.04 0.08 0.14 0.15 0.16 0.27 0.34 0.18 0.31 0.41 0.23 0.19 0.15 0.11 0.01 0.01 0.00 0.00 0.00 0.00 0.00 0.00 0.00 0.00 0.00 0.00 0.01 0.02 0.04 0.02 0.01 0.01 0.00 0.00 0.00 0.00 0.01 0.01 0.01 0.00
0.00 0.00 0.00 0.00 0.01 0.03 0.07 0.14 0.20 0.34 0.27 0.43 0.40 0.31 0.22 0.22 0.16 0.11 0.04 0.03 0.04 0.06 0.02 0.03 0.02 0.00 0.00 0.00 0.00 0.00 0.01 0.04 0.05 0.01 0.01 0.00 0.00 0.00 0.00 0.00 0.01 0.00 0.00
0.00 0.00 0.00 0.00 0.00 0.01 0.01 0.04 0.13 0.24 0.20 0.33 0.47 0.64 0.70 0.47 0.19 0.21 0.21 0.18 0.22 0.17 0.16 0.15 0.24 0.19 0.07 0.01 0.00 0.00 0.00 0.00 0.03 0.04 0.00 0.00 0.00 0.00 0.00 0.00 0.00 0.01 0.00
0.00 0.00 0.00 0.00 0.00 0.01 0.01 0.01 0.06 0.16 0.24 0.22 0.27 0.29 0.31 0.29 0.30 0.18 0.19 0.22 0.25 0.26 0.27 0.23 0.22 0.24 0.18 0.08 0.02 0.00 0.00 0.00 0.00 0.01 0.02 0.00 0.00 0.00 0.00 0.00 0.00 0.01 0.01
0.00 0.00 0.00 0.00 0.00 0.01 0.01 0.01 0.01 0.05 0.15 0.31 0.56 0.64 0.59 0.66 0.76 0.76 0.64 0.37 0.27 0.27 0.36 0.47 0.53 0.43 0.24 0.14 0.08 0.03 0.01 0.00 0.00 0.00 0.00 0.00 0.00 0.00 0.00 0.00 0.00 0.00 0.00
0.00 0.00 0.00 0.00 0.00 0.01 0.00 0.01 0.01 0.03 0.09 0.20 0.52 1.02 1.28 1.29 1.35 1.37 1.26 0.82 0.43 0.26 0.23 0.25 0.30 0.37 0.36 0.24 0.12 0.11 0.07 0.02 0.00 0.00 0.00 0.00 0.00 0.00 0.00 0.00 0.00 0.00 0.00
0.00 0.00 0.00 0.00 0.00 0.00 0.00 0.00 0.02 0.05 0.06 0.08 0.15 0.26 0.42 0.59 0.66 0.85 1.09 1.20 1.14 0.86 0.65 0.50 0.33 0.16 0.10 0.11 0.08 0.10 0.12 0.08 0.03 0.00 0.00 0.00 0.00 0.00 0.00 0.00 0.00 0.00 0.00
0.00 0.00 0.00 0.00 0.00 0.00 0.00 0.02 0.01 0.01 0.06 0.10 0.11 0.15 0.23 0.27 0.31 0.36 0.57 0.61 0.60 0.51 0.40 0.28 0.23 0.21 0.17 0.12 0.07 0.09 0.12 0.09 0.08 0.03 0.01 0.00 0.00 0.00 0.00 0.00 0.00 0.00 0.00
0.00 0.00 0.00 0.01 0.01 0.01 0.02 0.00 0.00 0.00 0.02 0.07 0.13 0.16 0.13 0.12 0.16 0.22 0.26 0.23 0.24 0.32 0.29 0.16 0.14 0.07 0.02 0.05 0.07 0.09 0.12 0.11 0.13 0.10 0.06 0.02 0.00 0.01 0.01 0.00 0.00 0.00 0.00
0.00 0.00 0.01 0.02 0.02 0.03 0.01 0.00 0.01 0.02 0.04 0.04 0.12 0.12 0.10 0.09 0.09 0.08 0.11 0.13 0.11 0.09 0.12 0.17 0.16 0.06 0.03 0.04 0.06 0.06 0.03 0.07 0.08 0.09 0.08 0.05 0.02 0.00 0.01 0.03 0.02 0.01 0.01
0.01 0.01 0.02 0.05 0.06 0.02 0.00 0.00 0.01 0.01 0.02 0.03 0.08 0.12 0.11 0.10 0.09 0.06 0.05 0.07 0.03 0.03 0.01 0.00 0.01 0.03 0.02 0.01 0.01 0.02 0.03 0.05 0.04 0.05 0.06 0.05 0.02 0.01 0.01 0.01 0.03 0.04 0.05
0.01 0.05 0.05 0.09 0.10 0.06 0.03 0.03 0.03 0.03 0.06 0.05 0.05 0.06 0.09 0.11 0.10 0.08 0.05 0.04 0.03 0.01 0.00 0.00 0.00 0.01 0.01 0.00 0.01 0.02 0.01 0.02 0.03 0.03 0.07 0.10 0.06 0.03 0.02 0.01 0.01 0.02 0.04
0.03 0.07 0.08 0.12 0.11 0.06 0.11 0.15 0.11 0.11 0.14 0.14 0.11 0.09 0.08 0.11 0.12 0.07 0.05 0.04 0.03 0.03 0.02 0.02 0.00 0.02 0.02 0.01 0.00 0.01 0.01 0.01 0.01 0.02 0.03 0.07 0.08 0.06 0.04 0.03 0.02 0.01 0.02
0.03 0.07 0.10 0.13 0.12 0.09 0.14 0.26 0.23 0.26 0.38 0.34 0.27 0.22 0.14 0.16 0.17 0.09 0.06 0.04 0.04 0.05 0.04 0.03 0.04 0.03 0.02 0.02 0.02 0.03 0.03 0.02 0.00 0.01 0.03 0.03 0.05 0.07 0.08 0.07 0.07 0.04 0.03
0.03 0.08 0.09 0.09 0.10 0.11 0.11 0.14 0.22 0.27 0.32 0.47 0.45 0.35 0.27 0.22 0.24 0.19 0.11 0.06 0.04 0.04 0.03 0.05 0.05 0.03 0.04 0.04 0.07 0.07 0.07 0.06 0.06 0.04 0.03 0.02 0.03 0.04 0.05 0.06 0.09 0.06 0.03
0.01 0.04 0.07 0.08 0.09 0.11 0.13 0.15 0.20 0.32 0.33 0.29 0.34 0.42 0.38 0.24 0.16 0.15 0.12 0.14 0.10 0.05 0.03 0.04 0.05 0.05 0.06 0.06 0.06 0.10 0.12 0.09 0.06 0.04 0.09 0.08 0.04 0.04 0.11 0.13 0.11 0.12 0.09
0.00 0.00 0.02 0.03 0.03 0.07 0.11 0.09 0.11 0.25 0.44 0.48 0.36 0.31 0.31 0.31 0.22 0.11 0.11 0.10 0.12 0.12 0.09 0.08 0.05 0.01 0.04 0.03 0.03 0.04 0.04 0.03 0.04 0.02 0.05 0.04 0.07 0.07 0.04 0.14 0.31 0.32 0.23
0.00 0.00 0.00 0.00 0.00 0.01 0.04 0.04 0.03 0.03 0.14 0.38 0.46 0.36 0.27 0.21 0.22 0.20 0.13 0.14 0.10 0.08 0.11 0.05 0.04 0.01 0.01 0.00 0.00 0.01 0.02 0.03 0.05 0.05 0.03 0.05 0.02 0.02 0.02 0.04 0.12 0.25 0.33
0.00 0.00 0.00 0.00 0.00 0.00 0.00 0.01 0.01 0.02 0.03 0.05 0.14 0.28 0.30 0.21 0.16 0.13 0.12 0.13 0.12 0.12 0.04 0.03 0.01 0.00 0.01 0.01 0.02 0.02 0.01 0.01 0.02 0.02 0.02 0.06 0.09 0.12 0.15 0.21 0.17 0.12 0.14
0.00 0.00 0.00 0.00 0.00 0.00 0.00 0.01 0.01 0.00 0.01 0.01 0.02 0.04 0.13 0.22 0.18 0.11 0.05 0.03 0.05 0.03 0.01 0.00 0.00 0.00 0.00 0.00 0.01 0.01 0.00 0.01 0.02 0.02 0.01 0.01 0.01 0.04 0.14 0.16 0.19 0.19 0.16

GFSMA_prec_precacc6_168.txt.gz
Total_Precipitation_Accumulation
0.04 0.04 0.03 0.03 0.03 0.03 0.05 0.11 0.14 0.10 0.06 0.03 0.04 0.03 0.01 0.00 0.00 0.00 0.00 0.00 0.00 0.00 0.00 0.02 0.05 0.05 0.01 0.01 0.01 0.00 0.00 0.00 0.00 0.00 0.00 0.00 0.00 0.00 0.01 0.01 0.00 0.00 0.01
0.00 0.01 0.02 0.03 0.04 0.05 0.04 0.05 0.07 0.08 0.06 0.05 0.04 0.04 0.03 0.01 0.00 0.00 0.00 0.00 0.00 0.00 0.00 0.01 0.05 0.09 0.05 0.02 0.02 0.01 0.01 0.00 0.00 0.00 0.00 0.00 0.00 0.00 0.00 0.00 0.00 0.00 0.00
0.00 0.00 0.00 0.00 0.02 0.03 0.02 0.03 0.04 0.06 0.06 0.07 0.05 0.05 0.06 0.03 0.03 0.00 0.00 0.00 0.00 0.00 0.00 0.00 0.00 0.03 0.08 0.10 0.03 0.00 0.01 0.00 0.00 0.00 0.00 0.00 0.00 0.00 0.00 0.00 0.00 0.00 0.01
0.00 0.00 0.00 0.00 0.00 0.00 0.01 0.02 0.04 0.04 0.05 0.07 0.05 0.04 0.07 0.07 0.05 0.03 0.01 0.00 0.00 0.00 0.00 0.00 0.00 0.00 0.00 0.04 0.03 0.00 0.00 0.00 0.00 0.00 0.00 0.00 0.00 0.00 0.00 0.00 0.00 0.00 0.01
0.00 0.00 0.00 0.00 0.00 0.00 0.00 0.00 0.01 0.04 0.06 0.05 0.04 0.03 0.03 0.04 0.05 0.06 0.05 0.01 0.00 0.00 0.00 0.00 0.00 0.00 0.00 0.01 0.02 0.03 0.01 0.01 0.00 0.00 0.00 0.00 0.00 0.00 0.00 0.00 0.00 0.00 0.01
0.00 0.00 0.00 0.00 0.00 0.00 0.00 0.00 0.01 0.02 0.05 0.07 0.07 0.04 0.02 0.02 0.02 0.06 0.07 0.07 0.05 0.02 0.00 0.00 0.00 0.00 0.00 0.00 0.00 0.03 0.05 0.02 0.01 0.00 0.00 0.00 0.00 0.00 0.00 0.00 0.00 0.00 0.00
0.00 0.00 0.00 0.00 0.00 0.00 0.00 0.00 0.00 0.00 0.02 0.07 0.14 0.13 0.10 0.06 0.06 0.06 0.06 0.07 0.08 0.06 0.02 0.01 0.00 0.00 0.00 0.00 0.00 0.01 0.03 0.06 0.06 0.02 0.01 0.00 0.00 0.00 0.00 0.00 0.00 0.00 0.00
0.00 0.00 0.00 0.00 0.00 0.00 0.00 0.00 0.00 0.00 0.00 0.05 0.22 0.35 0.36 0.28 0.20 0.16 0.14 0.16 0.12 0.09 0.07 0.04 0.02 0.00 0.00 0.00 0.00 0.00 0.00 0.04 0.10 0.07 0.00 0.00 0.00 0.00 0.00 0.00 0.00 0.00 0.01
0.00 0.00 0.00 0.00 0.00 0.00 0.00 0.00 0.00 0.00 0.01 0.00 0.01 0.12 0.22 0.31 0.35 0.27 0.19 0.12 0.08 0.07 0.07 0.05 0.04 0.03 0.02 0.01 0.00 0.00 0.00 0.00 0.02 0.07 0.03 0.00 0.00 0.00 0.00 0.00 0.00 0.00 0.01
0.00 0.00 0.00 0.00 0.00 0.00 0.00 0.00 0.00 0.01 0.02 0.01 0.01 0.01 0.04 0.12 0.22 0.31 0.26 0.23 0.16 0.12 0.06 0.06 0.05 0.05 0.08 0.12 0.09 0.03 0.01 0.01 0.02 0.02 0.02 0.00 0.00 0.00 0.00 0.00 0.00 0.00 0.00
0.00 0.00 0.00 0.00 0.00 0.00 0.00 0.00 0.01 0.01 0.02 0.03 0.03 0.02 0.02 0.02 0.05 0.11 0.14 0.14 0.21 0.26 0.20 0.15 0.10 0.09 0.09 0.09 0.12 0.14 0.08 0.02 0.06 0.08 0.07 0.01 0.00 0.00 0.00 0.00 0.00 0.00 0.00
0.00 0.00 0.00 0.00 0.00 0.00 0.01 0.01 0.01 0.02 0.03 0.02 0.01 0.02 0.02 0.03 0.03 0.07 0.08 0.13 0.23 0.18 0.18 0.24 0.30 0.23 0.21 0.20 0.15 0.12 0.17 0.18 0.18 0.17 0.14 0.09 0.01 0.00 0.00 0.00 0.00 0.00 0.00
0.00 0.00 0.00 0.00 0.00 0.00 0.01 0.01 0.03 0.03 0.01 0.01 0.01 0.01 0.02 0.02 0.03 0.04 0.07 0.09 0.16 0.26 0.29 0.24 0.23 0.29 0.33 0.32 0.30 0.24 0.20 0.22 0.24 0.20 0.12 0.11 0.08 0.01 0.00 0.00 0.00 0.00 0.00
0.00 0.00 0.00 0.00 0.00 0.00 0.01 0.02 0.01 0.00 0.00 0.00 0.00 0.00 0.01 0.02 0.03 0.04 0.07 0.33 0.52 0.33 0.23 0.15 0.13 0.21 0.24 0.24 0.24 0.23 0.24 0.26 0.29 0.30 0.22 0.10 0.06 0.04 0.00 0.00 0.00 0.00 0.00
0.00 0.00 0.00 0.00 0.00 0.00 0.02 0.01 0.00 0.00 0.00 0.00 0.01 0.01 0.01 0.01 0.03 0.04 0.05 0.10 0.22 0.22 0.14 0.08 0.07 0.07 0.06 0.06 0.08 0.11 0.13 0.17 0.19 0.22 0.25 0.25 0.17 0.06 0.02 0.01 0.00 0.00 0.00
0.00 0.00 0.00 0.00 0.00 0.01 0.01 0.00 0.00 0.00 0.00 0.00 0.01 0.01 0.01 0.01 0.02 0.04 0.06 0.06 0.08 0.07 0.06 0.03 0.03 0.07 0.09 0.04 0.02 0.04 0.08 0.11 0.13 0.15 0.16 0.18 0.22 0.25 0.14 0.03 0.01 0.00 0.00
0.00 0.00 0.00 0.00 0.00 0.01 0.00 0.00 0.00 0.00 0.00 0.00 0.00 0.01 0.01 0.01 0.01 0.03 0.06 0.07 0.07 0.06 0.05 0.03 0.03 0.04 0.05 0.03 0.03 0.03 0.02 0.04 0.06 0.09 0.11 0.15 0.19 0.22 0.25 0.20 0.05 0.01 0.01
0.00 0.00 0.00 0.00 0.00 0.00 0.00 0.01 0.00 0.00 0.01 0.01 0.01 0.01 0.01 0.01 0.01 0.03 0.07 0.11 0.10 0.07 0.07 0.06 0.05 0.03 0.02 0.02 0.02 0.01 0.01 0.01 0.01 0.02 0.04 0.06 0.07 0.14 0.24 0.26 0.18 0.05 0.02
0.00 0.00 0.00 0.00 0.00 0.00 0.00 0.01 0.00 0.01 0.01 0.02 0.03 0.03 0.02 0.01 0.02 0.04 0.10 0.12 0.13 0.16 0.13 0.10 0.08 0.07 0.04 0.03 0.02 0.02 0.01 0.01 0.01 0.03 0.01 0.06 0.12 0.08 0.08 0.17 0.27 0.27 0.13
0.00 0.00 0.00 0.00 0.00 0.00 0.00 0.01 0.01 0.01 0.01 0.02 0.06 0.07 0.07 0.08 0.10 0.13 0.12 0.17 0.26 0.16 0.21 0.19 0.16 0.10 0.13 0.05 0.06 0.02 0.01 0.01 0.01 0.01 0.01 0.01 0.05 0.12 0.09 0.06 0.08 0.17 0.24
0.00 0.00 0.00 0.00 0.00 0.00 0.00 0.00 0.02 0.02 0.02 0.03 0.06 0.11 0.21 0.29 0.24 0.27 0.28 0.24 0.22 0.39 0.21 0.19 0.24 0.24 0.14 0.22 0.07 0.01 0.00 0.00 0.00 0.01 0.01 0.01 0.01 0.03 0.07 0.09 0.05 0.08 0.14
0.00 0.00 0.00 0.00 0.00 0.00 0.00 0.00 0.01 0.02 0.02 0.03 0.05 0.07 0.13 0.29 0.31 0.36 0.35 0.35 0.35 0.35 0.47 0.32 0.24 0.34 0.37 0.18 0.18 0.04 0.01 0.02 0.02 0.01 0.02 0.01 0.01 0.01 0.00 0.02 0.07 0.07 0.07
0.00 0.00 0.00 0.00 0.00 0.00 0.00 0.01 0.01 0.01 0.02 0.04 0.06 0.08 0.11 0.18 0.27 0.32 0.41 0.38 0.40 0.38 0.43 0.48 0.39 0.34 0.48 0.36 0.18 0.10 0.07 0.07 0.05 0.03 0.02 0.02 0.01 0.02 0.01 0.01 0.01 0.03 0.09
0.00 0.00 0.00 0.00 0.00 0.00 0.00 0.01 0.01 0.00 0.00 0.01 0.04 0.08 0.12 0.11 0.19 0.29 0.31 0.37 0.39 0.47 0.43 0.50 0.45 0.43 0.37 0.26 0.16 0.11 0.12 0.14 0.11 0.06 0.07 0.07 0.03 0.03 0.02 0.04 0.08 0.04 0.02
0.00 0.00 0.00 0.00 0.00 0.00 0.00 0.01 0.01 0.00 0.00 0.00 0.00 0.02 0.06 0.08 0.13 0.21 0.26 0.31 0.38 0.36 0.51 0.53 0.63 0.42 0.41 0.34 0.20 0.17 0.18 0.18 0.15 0.16 0.10 0.04 0.03 0.05 0.06 0.04 0.05 0.11 0.12
0.00 0.00 0.00 0.00 0.00 0.00 0.00 0.01 0.01 0.00 0.00 0.00 0.00 0.00 0.01 0.02 0.06 0.13 0.18 0.24 0.31 0.38 0.44 0.44 0.54 0.51 0.29 0.33 0.29 0.16 0.15 0.20 0.22 0.19 0.14 0.15 0.06 0.02 0.04 0.03 0.05 0.07 0.05

GFSMA_prec_precacc6_171.txt.gz
Total_Precipitation_Accumulation
0.00 0.00 0.00 0.00 0.01 0.01 0.03 0.07 0.11 0.10 0.07 0.07 0.12 0.11 0.10 0.04 0.00 0.00 0.00 0.00 0.00 0.00 0.00 0.00 0.02 0.02 0.00 0.00 0.00 0.00 0.00 0.00 0.00 0.00 0.00 0.00 0.00 0.00 0.00 0.00 0.00 0.00 0.00
0.00 0.00 0.00 0.00 0.00 0.00 0.00 0.01 0.03 0.05 0.06 0.06 0.07 0.12 0.13 0.10 0.05 0.01 0.00 0.00 0.00 0.00 0.00 0.00 0.02 0.05 0.04 0.02 0.00 0.00 0.00 0.00 0.00 0.00 0.00 0.00 0.00 0.00 0.00 0.00 0.00 0.00 0.00
0.00 0.00 0.00 0.00 0.00 0.00 0.00 0.00 0.00 0.01 0.04 0.05 0.05 0.07 0.11 0.11 0.11 0.05 0.01 0.00 0.01 0.00 0.00 0.00 0.00 0.01 0.03 0.05 0.02 0.00 0.00 0.00 0.00 0.00 0.00 0.00 0.00 0.00 0.00 0.00 0.00 0.00 0.00
0.00 0.00 0.00 0.00 0.00 0.00 0.00 0.00 0.00 0.00 0.01 0.03 0.04 0.04 0.07 0.09 0.10 0.11 0.10 0.03 0.00 0.00 0.00 0.00 0.00 0.00 0.00 0.01 0.01 0.00 0.00 0.00 0.00 0.00 0.00 0.00 0.00 0.00 0.00 0.00 0.00 0.00 0.00
0.00 0.00 0.00 0.00 0.00 0.00 0.00 0.00 0.00 0.00 0.00 0.00 0.01 0.02 0.02 0.04 0.05 0.09 0.11 0.10 0.07 0.04 0.01 0.01 0.00 0.00 0.00 0.00 0.00 0.02 0.01 0.00 0.00 0.00 0.00 0.00 0.00 0.00 0.00 0.00 0.00 0.00 0.00
0.00 0.00 0.00 0.00 0.00 0.00 0.00 0.00 0.00 0.00 0.00 0.00 0.00 0.00 0.00 0.01 0.02 0.06 0.08 0.11 0.13 0.10 0.03 0.02 0.02 0.01 0.00 0.00 0.00 0.01 0.03 0.02 0.01 0.00 0.00 0.00 0.00 0.00 0.00 0.00 0.00 0.00 0.00
0.00 0.00 0.00 0.00 0.00 0.00 0.00 0.00 0.00 0.00 0.00 0.00 0.00 0.00 0.00 0.01 0.04 0.05 0.05 0.08 0.12 0.13 0.12 0.11 0.06 0.01 0.01 0.01 0.00 0.00 0.02 0.05 0.06 0.02 0.00 0.00 0.00 0.00 0.00 0.00 0.00 0.00 0.00
0.00 0.00 0.00 0.00 0.00 0.00 0.00 0.00 0.00 0.00 0.00 0.00 0.00 0.00 0.00 0.00 0.00 0.07 0.12 0.16 0.14 0.14 0.16 0.15 0.12 0.07 0.02 0.01 0.01 0.00 0.00 0.03 0.07 0.05 0.00 0.00 0.00 0.00 0.00 0.00 0.00 0.00 0.00
0.00 0.00 0.00 0.00 0.00 0.00 0.00 0.00 0.00 0.00 0.01 0.00 0.00 0.02 0.01 0.01 0.00 0.02 0.06 0.08 0.07 0.09 0.12 0.11 0.14 0.15 0.11 0.04 0.03 0.01 0.00 0.00 0.01 0.04 0.01 0.00 0.00 0.00 0.00 0.00 0.00 0.00 0.00
0.00 0.00 0.00 0.00 0.00 0.00 0.00 0.00 0.00 0.00 0.01 0.02 0.01 0.01 0.02 0.04 0.03 0.01 0.02 0.05 0.11 0.10 0.08 0.08 0.08 0.11 0.12 0.12 0.09 0.08 0.03 0.01 0.00 0.01 0.01 0.00 0.00 0.00 0.00 0.00 0.00 0.00 0.00
0.00 0.00 0.00 0.00 0.00 0.00 0.00 0.00 0.00 0.00 0.01 0.03 0.03 0.02 0.01 0.01 0.01 0.02 0.01 0.01 0.08 0.12 0.11 0.11 0.13 0.13 0.12 0.14 0.12 0.17 0.10 0.06 0.05 0.09 0.07 0.01 0.00 0.00 0.00 0.00 0.00 0.00 0.00
0.00 0.00 0.00 0.00 0.00 0.00 0.00 0.00 0.00 0.02 0.01 0.01 0.01 0.01 0.02 0.03 0.03 0.04 0.03 0.02 0.02 0.04 0.08 0.12 0.16 0.16 0.16 0.17 0.17 0.18 0.22 0.19 0.22 0.24 0.26 0.17 0.04 0.00 0.00 0.00 0.00 0.00 0.00
0.00 0.00 0.00 0.00 0.00 0.00 0.00 0.00 0.01 0.01 0.00 0.00 0.00 0.01 0.01 0.02 0.02 0.03 0.04 0.03 0.03 0.02 0.04 0.05 0.05 0.08 0.14 0.21 0.26 0.27 0.23 0.21 0.21 0.22 0.21 0.22 0.16 0.05 0.00 0.00 0.00 0.00 0.00
0.00 0.00 0.00 0.00 0.00 0.00 0.00 0.01 0.00 0.00 0.00 0.00 0.00 0.00 0.01 0.01 0.02 0.02 0.03 0.05 0.03 0.02 0.02 0.02 0.04 0.09 0.13 0.13 0.13 0.27 0.28 0.27 0.27 0.21 0.16 0.14 0.15 0.13 0.05 0.01 0.00 0.00 0.00
0.00 0.00 0.00 0.00 0.00 0.00 0.00 0.00 0.00 0.00 0.00 0.00 0.01 0.00 0.01 0.01 0.02 0.02 0.02 0.03 0.05 0.06 0.03 0.03 0.03 0.02 0.03 0.10 0.19 0.22 0.18 0.16 0.18 0.20 0.21 0.23 0.19 0.08 0.05 0.05 0.03 0.01 0.00
0.00 0.00 0.00 0.00 0.00 0.00 0.00 0.00 0.00 0.00 0.00 0.00 0.00 0.01 0.01 0.01 0.01 0.01 0.02 0.02 0.03 0.04 0.05 0.02 0.02 0.03 0.03 0.03 0.03 0.07 0.21 0.33 0.24 0.13 0.14 0.17 0.22 0.29 0.18 0.06 0.03 0.02 0.01
0.00 0.00 0.00 0.00 0.00 0.00 0.00 0.00 0.00 0.00 0.00 0.00 0.00 0.00 0.01 0.01 0.01 0.02 0.01 0.02 0.02 0.04 0.05 0.02 0.03 0.03 0.04 0.04 0.04 0.04 0.05 0.08 0.08 0.06 0.08 0.10 0.14 0.19 0.26 0.25 0.11 0.02 0.02
0.00 0.00 0.00 0.00 0.00 0.00 0.00 0.00 0.00 0.00 0.00 0.00 0.00 0.00 0.00 0.00 0.01 0.01 0.02 0.02 0.02 0.03 0.06 0.06 0.04 0.03 0.03 0.03 0.05 0.05 0.06 0.07 0.06 0.04 0.04 0.04 0.07 0.22 0.31 0.30 0.25 0.12 0.04
0.00 0.00 0.00 0.00 0.00 0.00 0.00 0.00 0.00 0.00 0.01 0.01 0.01 0.01 0.01 0.01 0.01 0.02 0.02 0.02 0.01 0.01 0.04 0.08 0.08 0.07 0.04 0.04 0.06 0.08 0.07 0.05 0.06 0.04 0.02 0.06 0.10 0.08 0.17 0.31 0.38 0.36 0.23
0.00 0.00 0.00 0.00 0.00 0.00 0.00 0.00 0.00 0.01 0.01 0.00 0.02 0.02 0.02 0.03 0.04 0.05 0.03 0.01 0.01 0.02 0.03 0.13 0.15 0.10 0.13 0.06 0.10 0.08 0.09 0.11 0.06 0.03 0.01 0.01 0.04 0.10 0.12 0.15 0.24 0.34 0.43
0.00 0.00 0.00 0.00 0.00 0.00 0.00 0.00 0.01 0.01 0.01 0.01 0.01 0.02 0.03 0.04 0.07 0.09 0.12 0.09 0.06 0.06 0.06 0.14 0.23 0.24 0.13 0.22 0.11 0.07 0.07 0.07 0.10 0.06 0.02 0.01 0.00 0.01 0.09 0.16 0.18 0.20 0.17
0.00 0.00 0.00 0.00 0.00 0.00 0.00 0.00 0.01 0.01 0.01 0.01 0.01 0.01 0.02 0.04 0.04 0.11 0.12 0.11 0.17 0.21 0.37 0.25 0.19 0.32 0.35 0.16 0.26 0.16 0.09 0.11 0.11 0.04 0.02 0.02 0.01 0.01 0.00 0.03 0.14 0.19 0.18
0.00 0.00 0.00 0.00 0.00 0.00 0.00 0.00 0.00 0.01 0.01 0.01 0.01 0.02 0.02 0.03 0.04 0.09 0.14 0.14 0.23 0.23 0.44 0.51 0.39 0.29 0.46 0.35 0.19 0.32 0.25 0.06 0.07 0.05 0.03 0.03 0.01 0.01 0.01 0.00 0.01 0.07 0.19
0.00 0.00 0.00 0.00 0.00 0.00 0.00 0.00 0.00 0.00 0.00 0.00 0.01 0.01 0.02 0.02 0.03 0.05 0.13 0.16 0.24 0.35 0.47 0.58 0.49 0.39 0.41 0.35 0.34 0.22 0.30 0.34 0.13 0.06 0.04 0.03 0.02 0.01 0.01 0.01 0.01 0.00 0.01
0.00 0.00 0.00 0.00 0.00 0.00 0.00 0.00 0.01 0.00 0.00 0.00 0.00 0.00 0.01 0.01 0.01 0.04 0.08 0.14 0.23 0.29 0.52 0.50 0.63 0.44 0.43 0.41 0.31 0.39 0.34 0.36 0.55 0.26 0.12 0.04 0.02 0.03 0.03 0.02 0.02 0.02 0.03
0.00 0.00 0.00 0.00 0.00 0.00 0.00 0.01 0.01 0.00 0.00 0.00 0.00 0.00 0.00 0.00 0.00 0.02 0.08 0.11 0.18 0.27 0.37 0.47 0.49 0.50 0.37 0.40 0.36 0.26 0.48 0.53 0.51 0.58 0.24 0.17 0.07 0.03 0.04 0.03 0.06 0.07 0.04

GFSMA_prec_precacc6_174.txt.gz
Total_Precipitation_Accumulation
0.00 0.00 0.00 0.00 0.00 0.00 0.00 0.00 0.00 0.01 0.02 0.04 0.07 0.08 0.11 0.08 0.04 0.03 0.01 0.16 0.05 0.00 0.01 0.00 0.00 0.01 0.00 0.00 0.00 0.00 0.00 0.00 0.00 0.00 0.00 0.00 0.00 0.00 0.00 0.00 0.00 0.00 0.00
0.00 0.00 0.00 0.00 0.00 0.00 0.00 0.00 0.00 0.00 0.00 0.01 0.03 0.07 0.10 0.10 0.09 0.06 0.02 0.13 0.22 0.10 0.03 0.03 0.02 0.01 0.02 0.01 0.00 0.00 0.00 0.00 0.00 0.00 0.00 0.00 0.00 0.00 0.00 0.00 0.00 0.00 0.00
0.00 0.00 0.00 0.00 0.00 0.00 0.00 0.00 0.00 0.00 0.00 0.00 0.00 0.01 0.05 0.08 0.09 0.05 0.02 0.02 0.16 0.20 0.10 0.05 0.05 0.02 0.01 0.02 0.01 0.00 0.00 0.00 0.00 0.00 0.00 0.00 0.00 0.00 0.00 0.00 0.00 0.00 0.00
0.00 0.00 0.00 0.00 0.00 0.00 0.00 0.00 0.00 0.00 0.00 0.00 0.00 0.00 0.00 0.02 0.05 0.08 0.10 0.05 0.02 0.10 0.19 0.12 0.09 0.04 0.04 0.02 0.02 0.00 0.00 0.00 0.00 0.00 0.00 0.00 0.00 0.00 0.00 0.00 0.00 0.00 0.00
0.00 0.00 0.00 0.00 0.00 0.00 0.00 0.00 0.00 0.00 0.00 0.00 0.00 0.00 0.00 0.00 0.00 0.03 0.06 0.09 0.08 0.06 0.07 0.22 0.19 0.12 0.11 0.09 0.04 0.02 0.01 0.00 0.00 0.00 0.00 0.00 0.00 0.00 0.00 0.00 0.00 0.00 0.00
0.00 0.00 0.00 0.00 0.00 0.00 0.00 0.00 0.00 0.00 0.00 0.00 0.00 0.00 0.00 0.00 0.00 0.00 0.01 0.04 0.08 0.08 0.03 0.08 0.22 0.21 0.28 0.33 0.12 0.03 0.02 0.02 0.01 0.00 0.00 0.00 0.00 0.00 0.00 0.00 0.00 0.00 0.00
0.00 0.00 0.00 0.00 0.00 0.00 0.00 0.00 0.00 0.00 0.00 0.00 0.00 0.00 0.00 0.00 0.00 0.00 0.00 0.01 0.04 0.07 0.10 0.12 0.13 0.16 0.17 0.17 0.08 0.06 0.02 0.04 0.03 0.01 0.00 0.00 0.00 0.00 0.00 0.00 0.00 0.00 0.00
0.00 0.00 0.00 0.00 0.00 0.00 0.00 0.00 0.00 0.00 0.00 0.00 0.00 0.00 0.00 0.00 0.00 0.00 0.00 0.01 0.02 0.06 0.10 0.12 0.15 0.14 0.17 0.23 0.19 0.07 0.05 0.02 0.03 0.02 0.00 0.00 0.00 0.00 0.00 0.00 0.00 0.00 0.00
0.00 0.00 0.00 0.00 0.00 0.00 0.00 0.00 0.00 0.00 0.00 0.00 0.00 0.01 0.01 0.01 0.00 0.00 0.00 0.00 0.01 0.03 0.06 0.07 0.11 0.16 0.23 0.28 0.41 0.43 0.18 0.04 0.01 0.01 0.00 0.00 0.00 0.00 0.00 0.00 0.00 0.00 0.00
0.00 0.00 0.00 0.00 0.00 0.00 0.00 0.00 0.00 0.00 0.01 0.01 0.00 0.00 0.01 0.02 0.02 0.01 0.00 0.00 0.00 0.01 0.03 0.05 0.07 0.10 0.12 0.20 0.34 0.56 0.43 0.12 0.03 0.01 0.00 0.00 0.00 0.00 0.00 0.00 0.00 0.00 0.00
0.00 0.00 0.00 0.00 0.00 0.00 0.00 0.00 0.00 0.00 0.01 0.01 0.01 0.01 0.01 0.01 0.01 0.02 0.01 0.00 0.00 0.00 0.01 0.05 0.10 0.11 0.12 0.16 0.17 0.25 0.45 0.62 0.48 0.22 0.10 0.01 0.00 0.00 0.00 0.00 0.00 0.00 0.00
0.00 0.00 0.00 0.00 0.00 0.00 0.00 0.00 0.00 0.01 0.00 0.00 0.00 0.00 0.01 0.02 0.02 0.02 0.02 0.01 0.01 0.00 0.00 0.00 0.03 0.10 0.12 0.12 0.17 0.25 0.30 0.26 0.34 0.55 0.40 0.17 0.05 0.00 0.00 0.00 0.00 0.00 0.00
0.00 0.00 0.00 0.00 0.00 0.00 0.00 0.00 0.00 0.00 0.00 0.00 0.00 0.00 0.00 0.01 0.01 0.02 0.02 0.01 0.01 0.01 0.00 0.00 0.00 0.02 0.09 0.16 0.19 0.19 0.21 0.28 0.32 0.36 0.41 0.38 0.19 0.11 0.03 0.01 0.00 0.00 0.00
0.00 0.00 0.00 0.00 0.00 0.00 0.00 0.00 0.00 0.00 0.00 0.00 0.00 0.00 0.00 0.00 0.01 0.02 0.02 0.04 0.03 0.01 0.00 0.00 0.00 0.00 0.05 0.08 0.07 0.17 0.30 0.31 0.22 0.36 0.55 0.55 0.26 0.19 0.13 0.06 0.02 0.00 0.00
0.00 0.00 0.00 0.00 0.00 0.00 0.00 0.00 0.00 0.00 0.00 0.00 0.00 0.00 0.00 0.00 0.01 0.01 0.02 0.02 0.05 0.07 0.02 0.00 0.00 0.00 0.01 0.09 0.18 0.22 0.16 0.17 0.31 0.31 0.43 0.80 0.63 0.19 0.13 0.12 0.08 0.04 0.01
0.00 0.00 0.00 0.00 0.00 0.00 0.00 0.00 0.00 0.00 0.00 0.00 0.00 0.00 0.00 0.01 0.01 0.01 0.02 0.02 0.02 0.05 0.07 0.00 0.00 0.00 0.01 0.02 0.02 0.07 0.19 0.28 0.29 0.22 0.18 0.38 0.76 0.62 0.27 0.12 0.08 0.06 0.05
0.00 0.00 0.00 0.00 0.00 0.00 0.00 0.00 0.00 0.00 0.00 0.00 0.00 0.00 0.00 0.00 0.01 0.01 0.01 0.02 0.03 0.03 0.04 0.01 0.00 0.00 0.00 0.02 0.03 0.03 0.04 0.06 0.08 0.12 0.14 0.13 0.32 0.67 0.51 0.16 0.11 0.08 0.07
0.00 0.00 0.00 0.00 0.00 0.00 0.00 0.00 0.00 0.00 0.00 0.00 0.00 0.00 0.00 0.01 0.01 0.01 0.02 0.02 0.02 0.02 0.03 0.03 0.00 0.00 0.00 0.01 0.03 0.04 0.05 0.06 0.08 0.10 0.05 0.03 0.07 0.18 0.38 0.17 0.12 0.13 0.09
0.00 0.00 0.00 0.00 0.00 0.00 0.00 0.00 0.00 0.00 0.00 0.01 0.00 0.01 0.01 0.01 0.02 0.02 0.03 0.03 0.02 0.02 0.02 0.03 0.01 0.00 0.00 0.02 0.03 0.07 0.07 0.05 0.06 0.08 0.06 0.04 0.03 0.05 0.14 0.19 0.16 0.14 0.15
0.00 0.00 0.00 0.00 0.00 0.00 0.00 0.00 0.00 0.00 0.00 0.00 0.01 0.01 0.01 0.01 0.02 0.04 0.04 0.02 0.02 0.02 0.02 0.01 0.01 0.00 0.00 0.02 0.05 0.07 0.09 0.11 0.05 0.04 0.04 0.02 0.02 0.04 0.09 0.14 0.22 0.26 0.27
0.00 0.00 0.00 0.00 0.00 0.00 0.00 0.00 0.00 0.00 0.00 0.01 0.01 0.01 0.01 0.01 0.02 0.03 0.04 0.04 0.04 0.04 0.03 0.02 0.01 0.01 0.00 0.01 0.04 0.06 0.07 0.07 0.10 0.11 0.06 0.02 0.02 0.02 0.08 0.15 0.18 0.24 0.30
0.00 0.00 0.00 0.00 0.00 0.00 0.00 0.00 0.00 0.00 0.00 0.01 0.01 0.01 0.01 0.01 0.01 0.01 0.01 0.02 0.07 0.11 0.10 0.04 0.02 0.01 0.01 0.01 0.13 0.13 0.09 0.11 0.11 0.09 0.17 0.08 0.03 0.02 0.01 0.02 0.11 0.18 0.19
0.00 0.00 0.00 0.00 0.00 0.00 0.00 0.00 0.00 0.00 0.01 0.01 0.01 0.01 0.01 0.02 0.01 0.01 0.00 0.01 0.06 0.07 0.13 0.15 0.12 0.03 0.03 0.04 0.10 0.32 0.25 0.07 0.07 0.06 0.09 0.13 0.11 0.06 0.02 0.01 0.01 0.04 0.14
0.00 0.00 0.00 0.00 0.00 0.00 0.00 0.00 0.00 0.00 0.00 0.00 0.01 0.01 0.01 0.02 0.01 0.00 0.01 0.01 0.05 0.07 0.13 0.17 0.17 0.14 0.14 0.19 0.30 0.23 0.32 0.34 0.13 0.06 0.14 0.16 0.11 0.09 0.02 0.01 0.01 0.00 0.02
0.00 0.00 0.00 0.00 0.00 0.00 0.00 0.00 0.00 0.00 0.00 0.00 0.00 0.00 0.01 0.01 0.00 0.00 0.01 0.02 0.03 0.08 0.10 0.17 0.19 0.21 0.29 0.30 0.28 0.40 0.30 0.28 0.50 0.24 0.13 0.12 0.07 0.07 0.07 0.01 0.01 0.01 0.00
0.00 0.00 0.00 0.00 0.00 0.00 0.00 0.00 0.01 0.00 0.01 0.00 0.00 0.00 0.00 0.00 0.00 0.01 0.01 0.03 0.04 0.05 0.10 0.13 0.19 0.23 0.27 0.35 0.32 0.30 0.46 0.41 0.36 0.59 0.24 0.15 0.13 0.07 0.08 0.03 0.02 0.02 0.01

GFSMA_prec_precacc6_177.txt.gz
Total_Precipitation_Accumulation
0.00 0.00 0.00 0.00 0.00 0.00 0.00 0.00 0.00 0.00 0.00 0.00 0.00 0.00 0.02 0.04 0.04 0.04 0.04 0.25 0.16 0.12 0.15 0.15 0.13 0.10 0.05 0.01 0.00 0.00 0.00 0.00 0.00 0.00 0.00 0.00 0.00 0.00 0.00 0.00 0.00 0.00 0.00
0.00 0.00 0.00 0.00 0.00 0.00 0.00 0.00 0.00 0.00 0.00 0.00 0.00 0.00 0.00 0.01 0.04 0.04 0.02 0.13 0.26 0.17 0.13 0.17 0.17 0.15 0.12 0.07 0.02 0.00 0.00 0.00 0.00 0.00 0.00 0.00 0.00 0.00 0.00 0.00 0.00 0.00 0.00
0.00 0.00 0.00 0.00 0.00 0.00 0.00 0.00 0.00 0.00 0.00 0.00 0.00 0.00 0.00 0.00 0.00 0.00 0.01 0.02 0.16 0.21 0.16 0.14 0.16 0.17 0.21 0.16 0.07 0.03 0.00 0.00 0.00 0.00 0.00 0.00 0.00 0.00 0.00 0.00 0.00 0.00 0.00
0.00 0.00 0.00 0.00 0.00 0.00 0.00 0.00 0.00 0.00 0.00 0.00 0.00 0.00 0.00 0.00 0.00 0.00 0.01 0.01 0.01 0.09 0.19 0.14 0.15 0.14 0.20 0.23 0.16 0.06 0.01 0.00 0.00 0.00 0.00 0.00 0.00 0.00 0.00 0.00 0.00 0.00 0.00
0.00 0.00 0.00 0.00 0.00 0.00 0.00 0.00 0.00 0.00 0.00 0.00 0.00 0.00 0.00 0.00 0.00 0.00 0.00 0.00 0.01 0.02 0.06 0.21 0.20 0.16 0.20 0.24 0.32 0.42 0.20 0.03 0.00 0.00 0.00 0.00 0.00 0.00 0.00 0.00 0.00 0.00 0.00
0.00 0.00 0.00 0.00 0.00 0.00 0.00 0.00 0.00 0.00 0.00 0.00 0.00 0.00 0.00 0.00 0.00 0.00 0.00 0.00 0.00 0.00 0.00 0.06 0.20 0.20 0.31 0.46 0.48 0.57 0.82 0.37 0.11 0.01 0.00 0.00 0.00 0.00 0.00 0.00 0.00 0.00 0.00
0.00 0.00 0.00 0.00 0.00 0.00 0.00 0.00 0.00 0.00 0.00 0.00 0.00 0.00 0.00 0.00 0.00 0.00 0.00 0.00 0.00 0.00 0.00 0.02 0.07 0.14 0.18 0.23 0.23 0.23 0.24 0.21 0.22 0.15 0.01 0.00 0.00 0.00 0.00 0.00 0.00 0.00 0.00
0.00 0.00 0.00 0.00 0.00 0.00 0.00 0.00 0.00 0.00 0.00 0.00 0.00 0.00 0.00 0.00 0.00 0.00 0.00 0.00 0.00 0.00 0.00 0.01 0.04 0.07 0.14 0.22 0.22 0.32 0.52 0.41 0.40 0.46 0.10 0.00 0.00 0.00 0.00 0.00 0.00 0.00 0.00
0.00 0.00 0.00 0.00 0.00 0.00 0.00 0.00 0.00 0.00 0.00 0.00 0.00 0.00 0.01 0.01 0.00 0.00 0.00 0.00 0.00 0.00 0.00 0.00 0.00 0.04 0.13 0.24 0.38 0.45 0.53 0.66 0.73 0.82 0.69 0.19 0.03 0.00 0.00 0.00 0.00 0.00 0.00
0.00 0.00 0.00 0.00 0.00 0.00 0.00 0.00 0.00 0.00 0.00 0.00 0.00 0.00 0.01 0.01 0.01 0.01 0.00 0.00 0.00 0.00 0.00 0.00 0.00 0.00 0.02 0.11 0.27 0.49 0.56 0.46 0.46 0.59 0.72 0.60 0.16 0.02 0.00 0.00 0.00 0.00 0.00
0.00 0.00 0.00 0.00 0.00 0.00 0.00 0.00 0.00 0.00 0.00 0.01 0.01 0.00 0.00 0.00 0.00 0.01 0.01 0.00 0.00 0.00 0.00 0.00 0.00 0.00 0.01 0.04 0.09 0.14 0.41 0.79 0.91 0.79 0.78 0.69 0.53 0.19 0.03 0.00 0.00 0.00 0.00
0.00 0.00 0.00 0.00 0.00 0.00 0.00 0.00 0.00 0.00 0.00 0.00 0.00 0.00 0.00 0.01 0.00 0.01 0.01 0.00 0.00 0.00 0.00 0.00 0.00 0.00 0.00 0.00 0.06 0.13 0.17 0.20 0.41 0.78 1.12 1.06 0.88 0.55 0.17 0.04 0.01 0.00 0.00
0.00 0.00 0.00 0.00 0.00 0.00 0.00 0.00 0.00 0.00 0.00 0.00 0.00 0.00 0.00 0.00 0.00 0.01 0.02 0.01 0.00 0.00 0.00 0.00 0.00 0.00 0.00 0.00 0.01 0.03 0.08 0.16 0.23 0.29 0.52 1.00 1.12 1.01 0.70 0.27 0.04 0.00 0.00
0.00 0.00 0.00 0.00 0.00 0.00 0.00 0.00 0.00 0.00 0.00 0.00 0.00 0.00 0.00 0.00 0.00 0.01 0.02 0.04 0.03 0.00 0.00 0.00 0.00 0.00 0.00 0.00 0.00 0.00 0.15 0.21 0.15 0.30 0.51 0.59 0.69 0.81 0.69 0.41 0.17 0.04 0.00
0.00 0.00 0.00 0.00 0.00 0.00 0.00 0.00 0.00 0.00 0.00 0.00 0.00 0.00 0.00 0.00 0.00 0.01 0.01 0.02 0.07 0.07 0.02 0.00 0.00 0.00 0.00 0.00 0.00 0.00 0.01 0.11 0.24 0.25 0.36 0.74 0.75 0.80 0.94 0.85 0.52 0.15 0.04
0.00 0.00 0.00 0.00 0.00 0.00 0.00 0.00 0.00 0.00 0.00 0.00 0.00 0.00 0.00 0.00 0.00 0.01 0.01 0.01 0.02 0.05 0.06 0.00 0.00 0.00 0.00 0.00 0.00 0.00 0.00 0.00 0.12 0.16 0.13 0.30 0.67 0.64 0.56 0.75 0.71 0.44 0.17
0.00 0.00 0.00 0.00 0.00 0.00 0.00 0.00 0.00 0.00 0.00 0.00 0.00 0.00 0.00 0.00 0.00 0.01 0.01 0.01 0.02 0.03 0.04 0.01 0.00 0.00 0.00 0.00 0.00 0.00 0.00 0.00 0.03 0.10 0.12 0.10 0.26 0.64 0.70 0.62 0.62 0.54 0.28
0.00 0.00 0.00 0.00 0.00 0.00 0.00 0.00 0.00 0.00 0.00 0.00 0.00 0.00 0.00 0.01 0.00 0.01 0.01 0.01 0.02 0.01 0.02 0.01 0.00 0.00 0.00 0.00 0.00 0.00 0.00 0.00 0.03 0.07 0.04 0.02 0.03 0.09 0.42 0.58 0.63 0.62 0.52
0.00 0.00 0.00 0.00 0.00 0.00 0.00 0.00 0.00 0.00 0.00 0.00 0.00 0.00 0.01 0.03 0.01 0.01 0.02 0.02 0.01 0.01 0.01 0.01 0.00 0.00 0.00 0.00 0.00 0.00 0.00 0.00 0.01 0.05 0.05 0.04 0.02 0.03 0.04 0.20 0.45 0.53 0.54
0.00 0.00 0.00 0.00 0.00 0.00 0.00 0.00 0.00 0.00 0.00 0.00 0.00 0.01 0.02 0.01 0.01 0.05 0.03 0.01 0.01 0.01 0.01 0.01 0.00 0.00 0.00 0.00 0.00 0.00 0.00 0.00 0.00 0.02 0.03 0.02 0.02 0.02 0.03 0.03 0.07 0.22 0.43
0.00 0.00 0.00 0.00 0.00 0.00 0.00 0.00 0.00 0.00 0.00 0.00 0.00 0.01 0.01 0.01 0.01 0.02 0.02 0.01 0.01 0.02 0.02 0.01 0.01 0.01 0.00 0.00 0.00 0.00 0.01 0.00 0.00 0.05 0.04 0.02 0.02 0.02 0.02 0.02 0.03 0.09 0.21
0.00 0.00 0.00 0.00 0.00 0.00 0.00 0.00 0.00 0.00 0.00 0.00 0.01 0.00 0.00 0.00 0.01 0.02 0.00 0.00 0.00 0.02 0.05 0.04 0.02 0.01 0.01 0.00 0.01 0.01 0.01 0.01 0.01 0.05 0.16 0.07 0.04 0.03 0.01 0.00 0.03 0.05 0.05
0.00 0.00 0.00 0.00 0.00 0.00 0.00 0.00 0.00 0.00 0.00 0.00 0.00 0.00 0.00 0.01 0.01 0.01 0.00 0.00 0.00 0.00 0.02 0.05 0.09 0.03 0.03 0.01 0.04 0.05 0.02 0.02 0.01 0.02 0.06 0.11 0.10 0.05 0.02 0.01 0.02 0.01 0.02
0.00 0.00 0.00 0.00 0.00 0.00 0.00 0.00 0.00 0.00 0.00 0.00 0.00 0.00 0.01 0.01 0.02 0.00 0.00 0.01 0.00 0.00 0.01 0.03 0.06 0.06 0.06 0.07 0.10 0.10 0.06 0.03 0.01 0.01 0.10 0.14 0.10 0.08 0.02 0.01 0.01 0.01 0.01
0.00 0.00 0.00 0.00 0.00 0.00 0.00 0.00 0.00 0.00 0.00 0.00 0.00 0.00 0.00 0.01 0.00 0.01 0.03 0.02 0.01 0.00 0.00 0.02 0.04 0.06 0.07 0.07 0.09 0.15 0.05 0.04 0.02 0.04 0.09 0.14 0.07 0.05 0.09 0.04 0.01 0.01 0.01
0.00 0.00 0.00 0.00 0.00 0.00 0.00 0.00 0.00 0.00 0.00 0.00 0.00 0.00 0.00 0.00 0.00 0.02 0.02 0.03 0.03 0.01 0.00 0.01 0.02 0.03 0.06 0.09 0.09 0.16 0.16 0.12 0.08 0.23 0.15 0.15 0.12 0.07 0.09 0.04 0.03 0.03 0.02

GFSMA_prec_precacc6_183.txt.gz
Total_Precipitation_Accumulation
0.00 0.00 0.00 0.00 0.00 0.00 0.00 0.00 0.00 0.00 0.00 0.00 0.00 0.00 0.00 0.00 0.00 0.00 0.00 0.00 0.00 0.00 0.02 0.08 0.14 0.26 0.51 0.80 0.85 0.66 0.34 0.21 0.06 0.03 0.01 0.00 0.00 0.00 0.00 0.00 0.00 0.01 0.04
0.00 0.00 0.00 0.00 0.00 0.00 0.00 0.00 0.00 0.00 0.00 0.00 0.00 0.00 0.00 0.00 0.00 0.00 0.00 0.00 0.00 0.00 0.00 0.00 0.03 0.09 0.14 0.31 0.63 1.07 1.12 0.88 0.59 0.18 0.03 0.00 0.01 0.00 0.00 0.00 0.00 0.00 0.01
0.00 0.00 0.00 0.00 0.00 0.00 0.00 0.00 0.00 0.00 0.00 0.00 0.00 0.00 0.00 0.00 0.00 0.00 0.00 0.00 0.00 0.00 0.00 0.00 0.00 0.02 0.08 0.29 0.60 0.70 0.85 0.91 0.76 0.35 0.08 0.03 0.04 0.02 0.00 0.00 0.00 0.00 0.00
0.00 0.00 0.00 0.00 0.00 0.00 0.00 0.00 0.00 0.00 0.00 0.00 0.00 0.00 0.00 0.00 0.00 0.00 0.00 0.00 0.00 0.00 0.00 0.00 0.00 0.00 0.00 0.04 0.19 0.67 1.24 0.86 0.51 0.24 0.15 0.14 0.07 0.05 0.02 0.00 0.00 0.00 0.00
0.00 0.00 0.00 0.00 0.00 0.00 0.00 0.00 0.00 0.00 0.00 0.00 0.00 0.00 0.00 0.00 0.00 0.00 0.00 0.00 0.00 0.00 0.00 0.00 0.00 0.00 0.00 0.00 0.02 0.12 0.62 0.82 0.81 0.88 0.71 0.61 0.37 0.15 0.10 0.02 0.00 0.00 0.00
0.00 0.00 0.00 0.00 0.00 0.00 0.00 0.00 0.00 0.00 0.00 0.00 0.00 0.00 0.00 0.00 0.00 0.00 0.00 0.00 0.00 0.00 0.00 0.00 0.00 0.00 0.00 0.00 0.00 0.00 0.21 1.25 1.70 1.71 1.52 1.25 0.77 0.43 0.26 0.09 0.02 0.00 0.00
0.00 0.00 0.00 0.00 0.00 0.00 0.00 0.00 0.00 0.00 0.00 0.00 0.00 0.00 0.00 0.00 0.00 0.00 0.00 0.00 0.00 0.00 0.00 0.00 0.00 0.00 0.00 0.00 0.00 0.00 0.02 0.12 0.20 0.67 1.29 1.08 0.70 0.55 0.29 0.13 0.09 0.02 0.00
0.00 0.00 0.00 0.00 0.00 0.00 0.00 0.00 0.00 0.00 0.00 0.00 0.00 0.00 0.00 0.00 0.00 0.00 0.00 0.00 0.00 0.00 0.00 0.00 0.00 0.00 0.00 0.00 0.00 0.00 0.00 0.00 0.01 0.09 0.48 0.73 0.72 0.74 0.50 0.42 0.27 0.08 0.01
0.00 0.00 0.00 0.00 0.00 0.00 0.00 0.00 0.00 0.00 0.00 0.00 0.00 0.00 0.00 0.00 0.00 0.00 0.00 0.00 0.00 0.00 0.00 0.00 0.00 0.00 0.00 0.00 0.00 0.00 0.00 0.00 0.01 0.04 0.45 1.05 1.06 0.75 0.77 0.61 0.37 0.22 0.07
0.00 0.00 0.00 0.00 0.00 0.00 0.00 0.00 0.00 0.00 0.00 0.00 0.00 0.00 0.00 0.00 0.00 0.00 0.00 0.00 0.00 0.00 0.00 0.00 0.00 0.00 0.00 0.00 0.00 0.00 0.00 0.00 0.00 0.00 0.08 0.40 0.69 0.61 0.37 0.36 0.38 0.28 0.17
0.00 0.00 0.00 0.00 0.00 0.00 0.00 0.00 0.00 0.00 0.00 0.00 0.00 0.00 0.00 0.00 0.00 0.00 0.00 0.00 0.00 0.00 0.00 0.00 0.00 0.00 0.00 0.00 0.00 0.00 0.00 0.00 0.00 0.00 0.00 0.09 0.35 0.77 0.76 0.49 0.37 0.34 0.25
0.00 0.00 0.00 0.00 0.00 0.00 0.00 0.00 0.00 0.00 0.00 0.00 0.00 0.00 0.00 0.00 0.00 0.01 0.00 0.00 0.00 0.00 0.00 0.00 0.00 0.00 0.00 0.00 0.00 0.00 0.00 0.00 0.00 0.00 0.00 0.00 0.03 0.32 0.76 0.75 0.59 0.47 0.42
0.00 0.00 0.00 0.00 0.00 0.00 0.00 0.00 0.00 0.00 0.00 0.00 0.00 0.00 0.00 0.00 0.00 0.00 0.01 0.00 0.00 0.00 0.00 0.00 0.00 0.00 0.00 0.00 0.00 0.00 0.00 0.00 0.00 0.00 0.00 0.00 0.00 0.08 0.36 0.74 0.74 0.58 0.50
0.00 0.00 0.00 0.00 0.00 0.00 0.00 0.00 0.00 0.00 0.00 0.00 0.00 0.00 0.00 0.00 0.00 0.00 0.01 0.01 0.01 0.00 0.00 0.00 0.00 0.00 0.00 0.00 0.00 0.00 0.00 0.00 0.00 0.00 0.00 0.00 0.00 0.01 0.11 0.36 0.62 0.64 0.61
0.00 0.00 0.00 0.00 0.00 0.00 0.00 0.00 0.00 0.00 0.00 0.00 0.00 0.00 0.00 0.00 0.00 0.00 0.01 0.01 0.03 0.03 0.00 0.00 0.00 0.00 0.00 0.00 0.00 0.00 0.00 0.00 0.00 0.00 0.00 0.00 0.00 0.00 0.01 0.08 0.30 0.56 0.47
0.00 0.00 0.00 0.00 0.00 0.00 0.00 0.00 0.00 0.00 0.00 0.00 0.00 0.00 0.00 0.00 0.00 0.01 0.01 0.01 0.01 0.01 0.02 0.00 0.00 0.00 0.00 0.00 0.00 0.00 0.00 0.00 0.00 0.00 0.00 0.00 0.00 0.00 0.00 0.01 0.11 0.43 0.71
0.00 0.00 0.00 0.00 0.00 0.00 0.00 0.00 0.00 0.00 0.00 0.00 0.00 0.00 0.00 0.00 0.01 0.01 0.00 0.00 0.00 0.02 0.02 0.00 0.00 0.00 0.00 0.00 0.00 0.00 0.00 0.00 0.00 0.00 0.00 0.00 0.00 0.00 0.00 0.00 0.01 0.09 0.40
0.00 0.00 0.00 0.00 0.00 0.00 0.00 0.00 0.00 0.00 0.00 0.00 0.00 0.00 0.00 0.00 0.01 0.00 0.00 0.01 0.02 0.01 0.00 0.00 0.00 0.00 0.00 0.00 0.00 0.00 0.00 0.00 0.00 0.00 0.00 0.00 0.00 0.00 0.00 0.00 0.00 0.02 0.10
0.00 0.00 0.00 0.00 0.00 0.00 0.00 0.00 0.00 0.00 0.00 0.00 0.00 0.00 0.00 0.00 0.00 0.00 0.01 0.02 0.02 0.00 0.00 0.00 0.00 0.00 0.00 0.00 0.00 0.00 0.00 0.00 0.00 0.00 0.00 0.00 0.00 0.00 0.00 0.00 0.00 0.00 0.06
0.00 0.00 0.00 0.00 0.00 0.00 0.00 0.00 0.00 0.00 0.00 0.00 0.00 0.00 0.00 0.00 0.00 0.01 0.02 0.03 0.01 0.01 0.00 0.00 0.00 0.00 0.00 0.00 0.00 0.00 0.00 0.00 0.00 0.00 0.00 0.00 0.00 0.00 0.00 0.00 0.00 0.00 0.00
0.00 0.00 0.00 0.00 0.00 0.00 0.00 0.00 0.00 0.00 0.00 0.00 0.00 0.00 0.00 0.00 0.00 0.00 0.03 0.01 0.01 0.01 0.02 0.01 0.00 0.00 0.00 0.00 0.00 0.00 0.00 0.00 0.00 0.00 0.00 0.00 0.00 0.00 0.00 0.00 0.00 0.00 0.00
0.00 0.00 0.00 0.00 0.00 0.00 0.00 0.00 0.00 0.00 0.00 0.00 0.00 0.00 0.00 0.00 0.00 0.00 0.00 0.00 0.01 0.02 0.02 0.01 0.01 0.02 0.01 0.01 0.00 0.00 0.01 0.02 0.02 0.00 0.00 0.00 0.00 0.00 0.00 0.00 0.00 0.00 0.00
0.00 0.00 0.00 0.00 0.00 0.00 0.00 0.00 0.00 0.00 0.00 0.00 0.00 0.00 0.00 0.00 0.00 0.00 0.00 0.01 0.00 0.00 0.00 0.01 0.07 0.03 0.02 0.01 0.03 0.03 0.01 0.01 0.02 0.00 0.00 0.00 0.00 0.00 0.00 0.00 0.00 0.00 0.00
0.00 0.00 0.00 0.00 0.00 0.00 0.00 0.00 0.00 0.00 0.00 0.00 0.00 0.00 0.00 0.00 0.00 0.00 0.03 0.01 0.00 0.00 0.00 0.02 0.03 0.00 0.01 0.01 0.03 0.05 0.05 0.02 0.01 0.00 0.00 0.00 0.00 0.00 0.00 0.00 0.00 0.00 0.00
0.00 0.00 0.00 0.00 0.00 0.00 0.00 0.00 0.00 0.00 0.00 0.00 0.00 0.00 0.00 0.00 0.00 0.01 0.01 0.00 0.00 0.00 0.00 0.00 0.00 0.00 0.00 0.00 0.00 0.03 0.03 0.03 0.02 0.00 0.00 0.01 0.01 0.00 0.00 0.00 0.00 0.00 0.00
0.00 0.00 0.00 0.00 0.00 0.00 0.00 0.00 0.00 0.00 0.00 0.00 0.00 0.00 0.00 0.00 0.01 0.01 0.00 0.00 0.01 0.02 0.00 0.00 0.00 0.00 0.00 0.00 0.00 0.02 0.06 0.10 0.04 0.03 0.00 0.01 0.01 0.01 0.04 0.00 0.00 0.00 0.00